Regional Weather Roundup
Issued by NWS

Home | Current Version | Previous Version | Graphics & Text | Print | Product List | Glossary Off
Versions: 1 2 3 4 5 6 7 8 9 10 11 12 13 14 15 16 17 18 19 20 21 22 23 24 25 26 27 28 29 30 31 32 33 34 35 36 37 38 39 40 41 42 43 44 45 46 47 48 49 50

000
ASUS43 KMKX 281900
RWRWI

WISCONSIN REGIONAL WEATHER ROUNDUP
NATIONAL WEATHER SERVICE MILWAUKEE/SULLIVAN WI
200 PM CDT TUE MAR 28 2017

NOTE: "FAIR" INDICATES FEW OR NO CLOUDS BELOW 12,000 FEET WITH NO
SIGNIFICANT WEATHER AND/OR OBSTRUCTIONS TO VISIBILITY.

WIZ001-002-006>008-014>016-023>028-282000-
NORTHWEST WISCONSIN

CITY           SKY/WX    TMP DP  RH WIND       PRES   REMARKS
SUPERIOR ARPT  MOSUNNY   59  35  40 CALM      30.16F
ASHLAND        SUNNY     59  30  33 MISG      30.16F
HAYWARD        SUNNY     58  19  22 CALM      30.15F
SIREN          SUNNY     59  22  23 CALM      30.15F
CUMBERLAND     SUNNY     54  30  40 S3        30.16S
RICE LAKE      SUNNY     56  29  35 CALM      30.17S
CHETEK         SUNNY     56  29  35 CALM      30.16S
LADYSMITH      SUNNY     56  33  40 W5        30.17S
EAU CLAIRE     NOT AVBL
MENOMONIE      SUNNY     56  36  46 CALM      30.17S
NEW RICHMOND   MOSUNNY   58  33  38 CALM      30.16S
OSCEOLA        MOSUNNY   59  31  34 CALM      30.18S
$$

WIZ003>005-009-010-017-018-282000-
NORTH CENTRAL WISCONSIN

CITY           SKY/WX    TMP DP  RH WIND       PRES   REMARKS
MANITOWISH WTR SUNNY     54  29  38 NE5       30.16S
ARBOR VITAE    SUNNY     54  30  38 CALM      30.15S
WOODRUFF       SUNNY     54  30  38 CALM      30.15S
RHINELANDER    SUNNY     56  29  35 CALM      30.15S
EAGLE RIVER    SUNNY     54  28  36 CALM      30.15S
LAND O LAKES   SUNNY     54  27  35 NE3       30.16S
PHILLIPS       SUNNY     55  26  32 S5        30.15S
TOMAHAWK       SUNNY     56  29  36 CALM      30.15F
MEDFORD        SUNNY     51  34  52 S7        30.15F
MERRILL        SUNNY     54  32  42 E5        30.15F
$$

WIZ029-030-035-036-043>047-282000-
CENTRAL WISCONSIN

CITY           SKY/WX    TMP DP  RH WIND       PRES   REMARKS
WAUSAU         SUNNY     54  31  41 SE6       30.14S
MOSINEE        MOSUNNY   55  36  47 E3        30.16S
MARSHFIELD     SUNNY     51  37  58 E3        30.15F
STEVENS POINT  SUNNY     52  32  46 NE6       30.16S
WAUPACA        SUNNY     57  32  39 NE6       30.17S
WAUTOMA        SUNNY     56  33  42 VRB6      30.15F
WISC RAPIDS    SUNNY     56  34  43 VRB3      30.16F
CAMP DOUGLAS   NOT AVBL
$$

WIZ011>013-019>022-031-037>040-048>050-282000-
NORTHEAST WISCONSIN

CITY           SKY/WX    TMP DP  RH WIND       PRES   REMARKS
ANTIGO         SUNNY     52  33  47 CALM      30.16S
SHAWANO        SUNNY     55  34  45 E8        30.17S
OCONTO         SUNNY     40  34  77 E7        30.19S
STURGEON BAY   CLOUDY    39  35  86 N6        30.16F WCI  35
GREEN BAY      SUNNY     46  39  76 NE10      30.18S
MANITOWOC      NOT AVBL
APPLETON       NOT AVBL
CLINTONVILLE   SUNNY     54  30  40 E5        30.16S
OSHKOSH        SUNNY     50  37  61 NE9       30.15F
$$

WIZ032>034-041-042-053>061-282000-
SOUTHWEST WISCONSIN

CITY           SKY/WX    TMP DP  RH WIND       PRES   REMARKS
LA CROSSE      SUNNY     56  40  55 W10       30.15S
SPARTA         SUNNY     56  36  46 E8        30.15F
VIROQUA        SUNNY     53  35  51 CALM      30.14S
BOSCOBEL       PTSUNNY   54  37  52 VRB5      30.16S
PRAIRIE DU CHI MOSUNNY   50  37  60 CALM      30.15S
PLATTEVILLE    CLOUDY    45  41  84 NE7       30.16S
$$

WIZ056-057-062-063-064-067-068-282000-
SOUTH CENTRAL WISCONSIN

CITY           SKY/WX    TMP DP  RH WIND       PRES   REMARKS
REEDSBURG      MOSUNNY   53  38  57 E6        30.14F
BARABOO/DELLS  SUNNY     53  36  54 E8        30.14F
LONE ROCK      NOT AVBL
MINERAL POINT  CLOUDY    46  41  81 CALM      30.15S
MADISON        MOSUNNY   53  38  56 NE9       30.14S
MIDDLETON      MOSUNNY   53  39  60 E6        30.14F
WATERTOWN      MOSUNNY   53  38  57 N8        30.13F
MONROE         CLOUDY    48  37  66 E7        30.13F
JANESVILLE     PTSUNNY   55  39  54 E8        30.13F
$$

WIZ051-052-058>065-066-070>072-282000-
SOUTHEAST WISCONSIN

CITY           SKY/WX    TMP DP  RH WIND       PRES   REMARKS
MILWAUKEE      PTSUNNY   42  36  79 NE12      30.16R
WAUKESHA       SUNNY     52  36  54 NE17      30.14S
MILWAUKEE/TIMM SUNNY     48  34  57 MISG      30.15S
RACINE         CLOUDY    42  35  76 N14       30.17R
KENOSHA        MOSUNNY   47  37  68 NE16      30.14S
FOND DU LAC    SUNNY     50  37  61 NE10      30.16S
SHEBOYGAN      CLOUDY    40  37  89 NE13      30.16S FOG     WCI  32
WEST BEND      SUNNY     52  36  54 NE6       30.14S
JUNEAU         SUNNY     51  36  57 N7        30.15S
$$

LSZ147-162-282000-
LAKE SUPERIOR

STATION/POSITION TIME  TEMP    WIND        PRES    WAVE
                       AIR SEA DIR/SP/G            HT/PER
                 (UTC) (F)     (DEG/KT/KT) (MB)    (FT/S)
DEVILS ISLAND    1800   43     220/  4/  5 1022.5S
PORT WING        1840   44      40/  1/  3 1022.0S
SAXON HARBOR     1840   39      CALM  /  2 1021.7F
$$

LMZ867-665-643>646-282000-
LAKE MICHIGAN

STATION/POSITION TIME  TEMP    WIND        PRES    WAVE
                       AIR SEA DIR/SP/G            HT/PER
                 (UTC) (F)     (DEG/KT/KT) (MB)    (FT/S)
CHAMBERS ISLAND  1840   38     330/  3/  4 1022.0F
NORTHPORT PIER   1840   33     330/  4/  4 1022.7S
SISTER BAY       1721   33     340/ 12/ 13   N/A
KEWAUNEE LAKESHO 1830   35      50/  9/ 13 1021.8R
SHEBOYGAN LAKESH 1800   33      20/ 12/ 13 1022.1R
PORT WASHINGTON  1840   37      50/ 10/ 13 1022.4S
MILWAUKEE LAKESH 1730   36      40/ 12/ 13   N/A
KENOSHA   LAKESH 1800   37      30/ 15/ 17 1021.0
$$

TC  - TEMPERATURE IN CELSIUS
VSB - VISIBILITY IN STATUTE MILES
WCI - WIND CHILL INDEX
HX  - HEAT INDEX




USA.gov is the U.S. government's official web portal to all federal, state and local government web resources and services.